Weather reports worldwide

Advertisment
List/Sylt, Germany (10020): temperature & dewpoint: 14.06.2019 06:00:00 - 20.06.2019 06:00:00 (CEST)List/Sylt, Germany (10020): temperature 5cm & temperature -5cm: 14.06.2019 06:00:00 - 20.06.2019 06:00:00 (CEST)List/Sylt, Germany (10020): temperature -20cm: 14.06.2019 06:00:00 - 20.06.2019 06:00:00 (CEST)List/Sylt, Germany (10020): wind speed & gusts: 14.06.2019 06:00:00 - 20.06.2019 06:00:00 (CEST)List/Sylt, Germany (10020): wind direction: 14.06.2019 06:00:00 - 20.06.2019 06:00:00 (CEST)List/Sylt, Germany (10020): reduced air pressure: 14.06.2019 06:00:00 - 20.06.2019 06:00:00 (CEST)List/Sylt, Germany (10020): visibility: 14.06.2019 06:00:00 - 20.06.2019 06:00:00 (CEST)List/Sylt, Germany (10020): sunshine duration: 14.06.2019 06:00:00 - 20.06.2019 06:00:00 (CEST)List/Sylt, Germany (10020): precipitation: 14.06.2019 06:00:00 - 20.06.2019 06:00:00 (CEST)
Date & Time tt [°C] td [°C] tt 5cm [°C] tt -5cm [°C] tt -20cm [°C] ff [km/h] ff [kn] fx [km/h] fx [kn] dd ppp [hPa] vv [km] sd [min] rr [mm]
20.06.2019 06:00:00 17,1 15,3 16,4 19,7 19,9 - - - - - 1005,4 26 0 0,0
20.06.2019 05:00:00 16,5 14,7 15,5 19,8 20,1 - - - - - 1005,4 30 0 0,0
20.06.2019 04:00:00 17,4 14,9 16,2 20,1 20,3 - - - - - 1005,7 30 0 0,2
20.06.2019 03:00:00 18,1 15,1 17,7 20,2 20,5 - - - - - 1005,8 18 0 0,0
20.06.2019 02:00:00 17,8 15,0 17,3 20,4 20,7 - - - - - 1006,1 13 0 0,0
20.06.2019 01:00:00 16,8 14,9 15,7 20,7 20,9 - - - - - 1005,9 11 0 0,0
20.06.2019 00:00:00 16,8 14,7 15,1 21,1 21,2 - - - - - 1005,9 14 0 0,0
19.06.2019 23:00:00 17,4 14,6 16,4 21,7 21,4 - - - - - 1006,2 22 0 0,0
19.06.2019 22:00:00 18,1 14,6 17,7 22,3 21,6 - - - - - 1006,2 26 0 0,0
19.06.2019 21:00:00 19,1 13,9 19,2 23,0 21,7 - - - - - 1005,6 32 0 0,0
19.06.2019 20:00:00 19,9 13,8 20,6 23,8 21,8 - - - - - 1005,0 31 36 0,0
19.06.2019 19:00:00 21,2 15,3 26,1 24,5 21,7 - - - - - 1005,5 22 47 0,0
19.06.2019 18:00:00 20,9 15,6 24,4 24,8 21,6 - - - - - 1005,6 15 28 0,0
19.06.2019 17:00:00 23,2 15,3 27,4 25,1 21,3 - - - - - 1005,4 24 43 0,0
19.06.2019 16:00:00 25,4 17,8 32,4 25,3 20,9 - - - - - 1005,3 29 52 0,0
19.06.2019 15:00:00 25,0 17,9 31,9 25,3 20,4 - - - - - 1006,4 59 56 0,0
19.06.2019 14:00:00 24,8 16,2 34,2 24,5 19,9 - - - - - 1006,6 49 60 0,0
19.06.2019 13:00:00 24,5 15,7 32,6 23,3 19,4 - - - - - 1007,0 46 60 0,0
19.06.2019 12:00:00 24,8 15,5 33,0 22,2 19,0 - - - - - 1007,6 40 59 0,0
19.06.2019 11:00:00 23,1 13,9 31,8 20,9 18,7 - - - - - 1008,1 45 44 0,0
19.06.2019 10:00:00 21,1 15,4 25,9 19,8 18,5 - - - - - 1008,5 47 40 0,0
19.06.2019 09:00:00 20,0 15,4 23,8 19,1 18,5 - - - - - 1008,8 38 57 0,0
19.06.2019 08:00:00 19,1 15,0 22,0 18,5 18,5 - - - - - 1009,3 28 46 0,0
19.06.2019 07:00:00 17,2 15,0 17,0 18,3 18,7 - - - - - 1010,0 17 0 0,0
19.06.2019 06:00:00 16,8 14,4 16,3 18,2 18,8 - - - - - 1010,4 14 0 0,0
19.06.2019 05:00:00 16,3 14,3 15,0 18,3 19,0 - - - - - 1010,9 17 0 0,0
19.06.2019 04:00:00 15,4 13,6 14,1 18,4 19,2 - - - - - 1011,3 25 0 0,0
19.06.2019 03:00:00 15,1 13,7 13,7 18,7 19,5 - - - - - 1011,8 24 0 0,0
19.06.2019 02:00:00 15,5 13,9 13,5 19,0 19,7 - - - - - 1012,5 23 0 0,0
19.06.2019 01:00:00 15,6 13,2 13,9 19,4 20,0 - - - - - 1012,9 27 0 0,0
19.06.2019 00:00:00 14,9 11,7 13,5 19,8 20,2 - - - - - 1013,4 32 0 0,0
18.06.2019 23:00:00 15,5 11,8 13,9 20,3 20,5 - - - - - 1013,5 42 0 0,0
18.06.2019 22:00:00 15,6 11,3 14,4 20,9 20,8 - - - - - 1013,8 40 6 0,0
18.06.2019 21:00:00 18,4 11,9 18,9 21,7 21,0 - - - - - 1013,7 37 57 0,0
18.06.2019 20:00:00 18,5 11,7 20,7 22,4 21,1 - - - - - 1013,7 44 57 0,0
18.06.2019 19:00:00 18,6 12,0 20,9 23,2 21,2 - - - - - 1013,9 40 24 0,0
18.06.2019 18:00:00 18,6 12,8 21,6 24,1 21,1 - - - - - 1013,9 34 57 0,0
18.06.2019 17:00:00 19,6 13,1 23,9 24,6 20,9 - - - - - 1014,1 33 37 0,0
18.06.2019 16:00:00 21,6 13,4 28,9 25,0 20,5 - - - - - 1014,3 19 57 0,0
18.06.2019 15:00:00 21,5 14,4 30,6 24,5 20,0 - - - - - 1014,8 20 59 0,0
18.06.2019 14:00:00 21,2 15,4 28,6 23,9 19,5 - - - - - 1014,9 19 57 0,0
18.06.2019 13:00:00 22,9 16,8 32,2 23,1 19,0 - - - - - 1015,0 27 60 0,0
18.06.2019 12:00:00 22,6 15,4 32,8 21,9 18,5 - - - - - 1015,1 30 60 0,0
18.06.2019 11:00:00 21,8 15,4 30,5 20,6 18,2 - - - - - 1015,3 33 60 0,0
18.06.2019 10:00:00 20,5 15,6 27,6 19,4 18,1 21 12 27 15 S 1015,5 35 54 0,0
18.06.2019 09:00:00 19,6 15,1 23,2 18,7 18,1 20 11 29 16 S 1015,8 41 21 0,0
18.06.2019 08:00:00 19,0 14,9 20,3 18,4 18,1 21 11 36 20 S 1015,8 41 12 0,0
18.06.2019 07:00:00 18,7 14,6 19,1 18,1 18,2 29 15 42 23 S 1015,9 38 25 0,0
18.06.2019 06:00:00 18,7 14,8 18,0 18,1 18,3 31 17 43 23 SSE 1015,7 38 1 0,0
18.06.2019 05:00:00 18,7 15,2 17,5 18,2 18,5 32 17 44 24 SSE 1015,8 37 0 0,0
18.06.2019 04:00:00 18,3 14,4 16,9 18,4 18,7 29 16 40 22 SSE 1016,1 40 0 0,0
18.06.2019 03:00:00 17,9 14,7 16,2 18,6 18,8 21 11 32 17 SE 1016,7 38 0 0,0
18.06.2019 02:00:00 18,1 14,9 17,2 18,9 19,0 22 12 29 16 SE 1017,0 32 0 0,0
18.06.2019 01:00:00 17,9 14,4 16,7 19,2 19,2 21 11 31 17 ESE 1017,4 32 0 0,0
18.06.2019 00:00:00 18,5 14,2 17,2 19,6 19,4 21 11 29 15 ESE 1017,7 39 0 0,0
17.06.2019 23:00:00 19,0 15,3 17,8 20,0 19,6 20 11 28 15 ESE 1018,2 32 0 0,0
17.06.2019 22:00:00 19,8 14,0 18,5 20,5 19,7 12 6 16 9 E 1018,4 49 31 0,0
17.06.2019 21:00:00 19,5 13,1 19,9 21,2 19,9 10 5 13 7 E 1018,7 51 60 0,0
17.06.2019 20:00:00 20,2 11,8 22,8 21,9 19,9 7 4 13 7 ESE 1019,2 67 60 0,0
17.06.2019 19:00:00 19,9 12,7 25,0 22,8 19,8 9 5 16 9 ESE 1019,6 40 60 0,0
17.06.2019 18:00:00 20,1 13,2 27,3 23,3 19,5 13 7 18 10 SE 1020,2 54 60 0,0
17.06.2019 17:00:00 20,5 12,5 29,1 23,3 19,2 11 6 23 12 SE 1020,5 53 60 0,0
17.06.2019 16:00:00 20,7 11,0 30,8 22,9 18,7 14 7 22 12 SSW 1020,8 49 60 0,0
17.06.2019 15:00:00 20,7 11,0 30,0 22,3 18,2 17 9 29 15 SW 1021,0 51 60 0,0
17.06.2019 14:00:00 20,2 11,1 28,0 21,4 17,7 18 10 34 18 WSW 1021,1 60 60 0,0
17.06.2019 13:00:00 20,5 12,2 26,6 20,3 17,3 23 12 42 23 WSW 1021,2 58 60 0,0
17.06.2019 12:00:00 19,6 11,7 25,9 19,4 17,0 26 14 40 22 SW 1021,0 63 60 0,0
17.06.2019 11:00:00 18,6 11,8 23,6 18,4 16,7 32 17 43 23 SW 1020,9 62 60 0,0
17.06.2019 10:00:00 17,9 11,8 22,9 17,6 16,6 31 17 39 21 SSW 1020,7 43 60 0,0
17.06.2019 09:00:00 17,2 12,2 20,7 16,8 16,5 30 16 41 22 SSW 1020,5 40 60 0,0
17.06.2019 08:00:00 16,8 12,5 18,7 16,4 16,6 28 15 39 21 SSW 1020,2 40 60 0,0
17.06.2019 07:00:00 16,4 13,3 16,7 16,2 16,7 28 15 46 25 SSW 1019,8 24 59 0,0
17.06.2019 06:00:00 16,5 13,4 15,4 16,2 16,8 28 15 41 22 S 1019,9 39 10 0,0
17.06.2019 05:00:00 16,3 13,3 14,7 16,3 16,9 26 14 37 20 S 1019,9 36 0 0,0
17.06.2019 04:00:00 16,0 12,5 14,7 16,4 17,1 18 10 26 14 SSW 1020,0 48 0 0,0
17.06.2019 03:00:00 15,7 12,2 13,8 16,5 17,3 20 11 29 16 SSW 1020,1 47 0 0,0
17.06.2019 02:00:00 15,6 11,9 13,7 16,8 17,5 23 12 29 16 SSW 1020,2 51 0 0,0
17.06.2019 01:00:00 15,3 12,4 13,6 17,0 17,7 21 12 29 16 SSW 1020,4 41 0 0,0
17.06.2019 00:00:00 14,2 11,4 12,2 17,4 18,0 16 8 23 13 SW 1020,5 43 0 0,0
16.06.2019 23:00:00 14,0 11,2 12,0 17,9 18,2 13 7 20 11 SW 1020,2 48 0 0,0
16.06.2019 22:00:00 14,8 10,5 13,4 18,6 18,4 14 8 25 14 SW 1020,1 64 43 0,0
16.06.2019 21:00:00 16,1 10,4 16,7 19,4 18,5 17 9 22 12 SW 1019,9 45 60 0,0
16.06.2019 20:00:00 17,1 11,0 19,9 20,2 18,6 16 9 22 12 SW 1019,9 55 59 0,0
16.06.2019 19:00:00 17,3 10,9 22,8 20,9 18,5 15 8 20 11 SW 1019,8 54 58 0,0
16.06.2019 18:00:00 17,8 11,1 25,0 21,2 18,2 12 6 27 15 WSW 1019,7 75 60 0,0
16.06.2019 17:00:00 18,8 13,4 25,5 20,8 18,0 22 12 36 19 WSW 1019,8 23 26 0,0
16.06.2019 16:00:00 18,2 12,8 24,1 21,0 17,7 24 13 34 18 SW 1019,6 22 45 0,0
16.06.2019 15:00:00 18,6 12,0 25,9 20,5 17,3 26 14 39 21 SW 1019,2 26 33 0,0
16.06.2019 14:00:00 18,5 10,0 24,1 20,2 16,8 22 12 31 17 S 1019,1 75 25 0,0
16.06.2019 13:00:00 18,0 10,0 22,4 19,5 16,4 20 11 33 18 SW 1019,1 75 37 0,0
16.06.2019 12:00:00 18,6 11,2 26,0 18,3 16,0 18 10 31 17 SW 1018,6 53 59 0,0
16.06.2019 11:00:00 17,0 10,8 21,2 17,1 15,8 22 12 33 18 WSW 1017,9 49 58 0,0
16.06.2019 10:00:00 16,7 12,4 19,0 16,0 15,7 24 13 36 20 SW 1017,6 37 45 0,0
16.06.2019 09:00:00 15,7 12,6 16,0 15,5 15,7 23 13 34 18 SW 1017,2 36 46 0,0
16.06.2019 08:00:00 15,6 12,2 16,1 15,1 15,7 22 12 32 17 SW 1016,9 43 58 0,0
16.06.2019 07:00:00 14,7 11,4 13,7 14,8 15,9 19 11 29 16 SW 1016,6 73 60 0,0
16.06.2019 06:00:00 13,2 10,8 11,5 14,8 16,0 16 9 24 13 WSW 1016,0 49 23 0,0
16.06.2019 05:00:00 12,9 10,3 11,0 15,1 16,3 16 9 27 15 WSW 1015,9 56 0 0,0
16.06.2019 04:00:00 12,9 9,7 10,7 15,4 16,5 18 10 27 15 WSW 1015,7 47 0 0,0
16.06.2019 03:00:00 13,0 10,1 11,1 15,7 16,6 22 12 35 19 W 1015,8 48 0 0,0
16.06.2019 02:00:00 13,1 11,8 12,1 16,1 16,8 20 11 35 19 W 1015,2 22 0 0,0
16.06.2019 01:00:00 13,7 12,5 13,0 16,4 17,0 21 11 36 20 W 1015,1 26 0 0,0
16.06.2019 00:00:00 13,8 12,6 13,3 16,7 17,2 27 14 49 26 W 1014,3 24 0 0,0
15.06.2019 23:00:00 13,7 12,3 13,3 17,0 17,3 35 19 58 32 W 1013,4 34 0 0,0
15.06.2019 22:00:00 13,6 12,9 13,6 17,3 17,4 39 21 55 30 WNW 1012,1 28 0 0,0
15.06.2019 21:00:00 13,8 13,4 13,9 17,8 17,5 35 19 46 25 W 1011,4 0,9 0 0,0
15.06.2019 20:00:00 15,5 14,5 15,6 18,1 17,5 25 13 37 20 WSW 1011,4 4,5 0 0,0
15.06.2019 19:00:00 16,7 15,5 16,8 18,1 17,6 9 5 17 9 SSW 1010,7 30 0 0,2
15.06.2019 18:00:00 16,6 15,6 17,4 18,2 17,6 8 4 16 9 S 1010,4 21 0 0,7
15.06.2019 17:00:00 16,3 15,7 16,6 18,1 17,7 9 5 35 19 SSW 1010,3 4,8 0 12,5
15.06.2019 16:00:00 17,8 14,2 16,1 19,2 17,5 20 11 40 22 SSE 1010,5 13 0 0,6
15.06.2019 15:00:00 19,2 14,2 20,4 19,8 17,2 31 17 54 29 ESE 1009,7 34 12 0,0
15.06.2019 14:00:00 21,1 16,9 26,1 19,6 16,8 22 12 37 20 E 1009,8 29 47 0,0
15.06.2019 13:00:00 20,5 17,0 24,6 18,2 16,6 24 13 40 21 E 1009,4 32 28 0,0
15.06.2019 12:00:00 18,9 16,9 21,0 17,3 16,5 25 13 41 22 E 1009,6 23 5 0,0
15.06.2019 11:00:00 16,6 15,1 16,6 16,6 16,5 32 17 47 26 ENE 1009,9 20 0 0,0
15.06.2019 10:00:00 16,1 14,9 15,8 16,5 16,6 21 12 28 15 NE 1010,5 12 0 0,3
15.06.2019 09:00:00 15,7 14,4 15,4 16,4 16,6 22 12 30 16 NE 1011,4 18 0 0,0
15.06.2019 08:00:00 15,5 14,1 15,1 16,4 16,7 18 10 26 14 NE 1012,0 16 0 0,7
15.06.2019 07:00:00 15,5 13,9 14,9 16,5 16,8 20 11 30 16 NE 1012,3 19 0 0,0
15.06.2019 06:00:00 15,1 13,9 14,6 16,5 16,9 21 12 27 15 NE 1012,6 12 0 0,0
15.06.2019 05:00:00 15,3 14,3 14,6 16,6 17,1 21 11 26 14 NE 1013,0 12 0 0,0
15.06.2019 04:00:00 15,4 14,6 14,6 16,8 17,2 17 9 23 12 NE 1013,9 9 0 0,0
15.06.2019 03:00:00 15,5 14,6 14,5 16,9 17,4 16 9 23 12 NE 1014,7 9 0 0,0
15.06.2019 02:00:00 15,8 14,5 14,4 17,1 17,6 15 8 24 13 ENE 1015,3 22 0 0,0
15.06.2019 01:00:00 15,9 14,5 14,5 17,4 17,8 18 10 24 13 ENE 1015,8 26 0 0,0
15.06.2019 00:00:00 16,4 14,6 14,6 17,8 18,0 13 7 20 11 ENE 1015,7 37 0 0,0
14.06.2019 23:00:00 16,8 14,5 14,5 18,2 18,1 11 6 19 10 ENE 1016,1 39 0 0,0
14.06.2019 22:00:00 17,3 15,0 15,2 18,7 18,3 11 6 16 9 E 1016,2 47 40 0,0
14.06.2019 21:00:00 18,3 14,9 18,0 19,3 18,4 13 7 19 10 E 1016,1 57 60 0,0
14.06.2019 20:00:00 19,0 14,7 20,7 19,8 18,4 12 7 24 13 E 1015,9 39 60 0,0
14.06.2019 19:00:00 19,1 13,5 20,5 20,3 18,2 17 9 27 15 ENE 1015,8 58 60 0,0
14.06.2019 18:00:00 18,1 13,8 20,8 20,4 18,1 16 9 23 12 NE 1015,5 45 60 0,0
14.06.2019 17:00:00 17,1 12,9 19,4 19,5 18,0 10 6 18 10 E 1015,8 45 26 0,8
14.06.2019 16:00:00 13,9 12,2 13,5 19,2 18,0 22 12 39 21 W 1017,4 3,3 0 3,1
14.06.2019 15:00:00 17,5 11,0 18,7 20,2 17,9 17 9 23 12 WNW 1016,5 54 0 0,0
14.06.2019 14:00:00 18,9 10,9 22,1 20,8 17,5 7 4 16 9 S 1016,6 50 6 0,0
14.06.2019 13:00:00 20,0 12,5 27,5 20,7 17,1 12 6 24 13 SE 1016,4 45 60 0,0
14.06.2019 12:00:00 19,6 12,5 28,1 19,5 16,7 19 10 25 13 SE 1016,2 75 60 0,0
14.06.2019 11:00:00 18,7 11,6 26,7 18,2 16,4 - - - - - 1016,2 52 57 0,0
14.06.2019 10:00:00 17,4 11,2 22,2 17,2 16,3 - - - - - 1016,2 49 52 0,0
14.06.2019 09:00:00 16,9 11,9 20,7 16,5 16,3 - - - - - 1015,6 66 50 0,0
14.06.2019 08:00:00 16,0 11,7 17,2 16,1 16,4 - - - - - 1015,1 49 55 0,0
14.06.2019 07:00:00 15,6 11,9 14,9 15,9 16,5 - - - - - 1014,7 58 20 0,0
14.06.2019 06:00:00 15,9 10,4 14,4 15,9 16,6 24 13 36 20 S 1014,3 75 11 0,0

tt = temperature
td = dewpoint
tt 5cm = temperature 5cm
tt -5cm = temperature -5cm
tt -20cm = temperature -20cm
ff = wind speed
fx = gusts
dd = wind direction
ppp = reduced air pressure
vv = visibility
sd = sunshine duration
rr = precipitation

Next stations